SCP
0 0 0 0 0 0 0 0 0 0 0 0 0 0 0 0 0 0 0 0 0 0 0 0 0 0 0 0 0 0 0 0 0 0 0 0 0 0 0 0 0 0 0
0 0 0 0 0 0 0 0 0 0 0 0 0 0 0 0 0 0 0 0 0 0 0 0 0 0 0 0 0 0 0 0 0 0 0 0 0 0 0 0 0 0 0
0 0 0 0 0 0 0 0 0 0 0 0 0 0 0 0 0 0 0 0 0 0 0 0 0 0 0 0 0 0 0 0 0 0 0 0 0 0 0 0 0 0 0
0 0 0 0 0 0 0 0 0 0 0 0 0 0 0 0 0 0 0 0 0 0 0 0 0 0 0 0 0 0 0 0 0 0 0 0 0 0 0 0 0 0 0
0 0 0 0 0 0 0 0 0 0 0 0 0 0 0 0 0 0 0 0 0 0 0 0 0 0 0 0 0 0 0 0 0 0 0 0 0 0 0 0 0 0 0
0 0 0 0 0 0 0 0 0 0 0 0 0 0 0 0 0 0 0 0 0 0 0 0 0 0 0 0 0 0 0 0 0 0 0 0 0 0 0 0 0 0 0
0 0 0 0 0 0 0 0 0 0 0 0 0 0 0 0 0 0 0 0 0 0 0 0 0 0 0 0 0 0 0 0 0 0 0 0 0 0 0 0 0 0 0
0 0 0 0 0 0 0 0 0 0 0 0 0 0 0 0 0 0 0 0 0 0 0 0 0 0 0 0 0 0 0 0 0 0 0 0 0 0 0 0 0 0 0
0 0 0 0 0 0 0 0 0 0 0 0 0 0 0 0 0 0 0 0 0 0 0 0 0 0 0 0 0 0 0 0 0 0 0 0 0 0 0 0 0 0 0
0 0 0 0 0 0 0 0 0 0 0 0 0 0 0 0 0 0 0 0 0 0 0 0 0 0 0 0 0 0 0 0 0 0 0 0 0 0 0 0 0 0 0
0 0 0 0 0 0 0 0 0 0 0 0 0 0 0 0 0 0 0 0 0 0 0 0 0 0 0 0 0 0 0 0 0 0 0 0 0 0 0 0 0 0 0
0 0 0 0 0 0 0 0 0 0 0 0 0 0 0 0 0 0 0 0 0 0 0 0 0 0 0 0 0 0 0 0 0 0 0 0 0 0 0 0 0 0 0
0 0 0 0 0 0 0 0 0 0 0 0 0 0 0 0 0 0 0 0 0 0 0 0 0 0 0 0 0 0 0 0 0 0 0 0 0 0 0 0 0 0 0
0 0 0 0 0 0 0 0 0 0 0 0 0 0 0 0 0 0 0 0 0 0 0 0 0 0 0 0 0 0 0 0 0 0 0 0 0 0 0 0 0 0 0
0 0 0 0 0 0 0 0 0 0 0 0 0 0 0 0 0 0 0 0 0 0 0 0 0 0 0 0 0 0 0 0 0 0 0 0 0 0 0 0 0 0 0
0 0 0 0 0 0 0 0 0 0 0 0 0 0 0 0 0 0 0 0 0 0 0 0 0 0 0 0 0 0 0 0 0 0 0 0 0 0 0 0 0 0 0
0 0 0 0 0 0 0 0 0 0 0 0 0 0 0 0 0 0 0 0 0 0 0 0 0 0 0 0 0 0 0 0 0 0 0 0 0 0 0 0 0 0 0
0 0 0 0 0 0 0 0 0 0 0 0 0 0 0 0 0 0 0 0 0 0 0 0 0 0 0 0 0 0 0 0 0 0 0 0 0 0 0 0 0 0 0
0 0 0 0 0 0 0 0 0 0 0 0 0 0 0 0 0 0 0 0 0 0 0 0 0 0 0 0 0 0 0 0 0 0 0 0 0 0 0 0 0 0 0
-0 0 0 0 0 0 0 0 0 0 0 0 0 0 0 0 0 0 0 0 0 0 0 0 0 0 0 0 0 0 0 0 0 0 0 0 0 0 0 0 0 0 0
-0 0 0 0 0 0 -0 -0 0 0 0 0 0 0 0 0 0 0 0 0 0 0 0 0 0 0 0 0 0 0 0 0 0 0 0 0 0 0 0 0 0 0 0
-0 -0 -0 0 0 0 0 -0 -0 0 0 0 0 0 0 0 0 0 0 0 0 0 0 0 0 0 0 0 0 0 0 0 0 0 0 0 0 0 0 0 0 0 0
-0 -0 -0 -0 0 0 0 0 0 0 0 0 0 0 0 0 0 0 0 0 0 0 0 0 0 0 0 0 0 0 0 0 0 0 0 0 0 0 0 0 0 0 0
-0 -0 -0 0 0 0 0 0 0 0 0 0 0 0 0 0 0 0 0 0 0 0 0 0 0 0 0 0 0 0 0 0 0 0 0 0 0 0 0 0 0 0 0
0 0 0 0 0 0 0 0 0 0 0 0 0 0 0 0 0 0 0 0 0 0 0 0 0 0 0 0 0 0 0 0 0 0 0 0 0 0 0 0 0 0 0
0 0 0 0 0 0 0 0 0 0 0 0 0 0 0 0 0 0 0 0 0 0 0 0 0 0 0 0 0 0 0 0 0 0 0 0 0 0 0 0 0 0 0
Wind_Speed_500mb
61 56 57 53 50 46 46 39 36 32 28 24 21 18 17 15 16 16 17 17 17 17 15 13 12 12 3 12 11 18 28 23 20 21 20 20 19 18 17 17 21 27 29
65 63 62 59 55 53 49 45 40 37 34 30 27 23 20 17 16 16 16 15 16 17 17 12 7 4 16 21 16 9 24 16 22 20 13 13 13 14 14 12 12 11 12
72 68 67 65 61 59 56 53 49 45 39 34 30 25 22 19 18 17 16 16 15 17 19 17 15 18 21 14 13 20 29 21 16 10 7 6 9 8 8 9 10 11 13
77 75 73 71 67 64 61 59 55 50 45 40 36 31 26 23 21 20 19 19 18 17 19 19 23 37 35 10 18 23 14 12 11 10 11 12 11 10 12 12 10 10 11
79 81 78 75 73 70 68 65 61 56 51 46 41 37 33 29 25 23 23 23 24 24 25 24 23 24 26 24 25 22 21 21 17 20 18 17 17 16 14 14 15 16 15
80 82 82 80 78 75 74 71 66 61 56 51 46 41 37 34 30 30 29 29 28 27 28 29 31 32 33 27 24 23 27 27 25 23 21 19 19 18 19 18 18 18 18
81 82 86 85 84 80 77 74 71 67 61 56 49 42 39 40 37 38 36 36 34 33 32 32 33 32 32 29 25 26 30 32 26 23 21 20 18 17 18 19 20 20 21
84 85 87 90 90 84 81 80 78 76 69 67 57 41 26 39 44 43 44 43 41 39 38 37 37 32 31 29 34 44 40 32 28 24 20 18 17 17 17 19 21 21 23
82 86 89 92 93 91 91 88 87 86 81 76 67 36 16 21 34 46 50 46 43 40 40 39 37 36 35 38 42 38 34 32 27 24 21 20 20 21 23 24 24 24 25
69 78 84 88 96 97 97 96 93 91 86 85 76 77 58 26 17 16 38 44 46 46 48 47 44 41 39 42 43 37 33 29 24 23 23 23 24 24 25 25 26 25 25
49 54 70 84 96 102 101 100 99 100 98 93 88 85 80 58 40 31 27 42 50 54 55 52 50 47 42 43 43 39 37 34 29 26 25 26 25 25 25 25 24 25 25
45 45 53 67 84 99 104 104 103 103 102 100 99 95 89 87 79 59 40 36 46 53 64 63 60 56 49 47 47 41 40 38 32 29 27 26 24 24 25 25 26 27 27
39 40 43 52 61 80 97 103 106 108 106 106 106 103 99 96 89 76 62 46 39 47 52 65 66 63 58 52 52 43 42 41 33 31 29 26 23 24 27 28 29 29 29
34 40 43 43 50 55 70 91 104 107 108 108 107 108 108 102 97 93 84 75 52 52 56 58 66 69 66 60 54 48 45 43 36 33 29 26 25 26 28 29 29 28 27
34 40 44 48 48 49 56 65 87 104 108 109 108 109 111 109 104 98 92 88 79 57 68 64 65 69 69 65 59 55 51 47 41 37 33 30 28 28 29 28 27 27 27
34 38 43 46 49 49 53 60 69 83 98 108 110 111 114 113 110 107 102 96 88 76 66 73 73 69 66 68 64 62 58 52 46 41 37 33 30 30 31 31 31 31 30
47 40 37 43 47 52 51 58 69 72 80 92 106 111 114 112 115 115 110 104 97 88 77 63 69 67 70 70 70 68 65 58 52 46 40 37 35 35 34 33 35 33 31
44 46 47 42 44 50 52 56 65 71 77 84 88 103 113 111 115 116 116 114 109 98 90 83 77 74 73 72 70 69 70 62 57 50 45 39 36 36 36 35 35 31 30
48 48 48 49 46 46 51 54 60 66 75 79 83 89 99 108 117 119 120 117 113 108 96 96 88 83 76 74 76 76 75 68 62 56 49 43 42 40 38 37 34 33 30
57 56 54 53 54 53 49 52 58 62 70 79 82 87 90 97 110 118 122 121 117 114 107 103 101 93 86 83 80 81 81 75 69 62 55 49 46 42 40 35 34 34 31
65 64 63 60 60 59 59 59 55 58 65 75 81 87 93 96 99 106 115 123 123 121 118 113 113 104 95 93 95 90 84 73 72 68 59 55 48 43 38 34 35 35 34
76 72 68 66 66 65 60 62 64 65 63 71 79 82 88 91 101 98 107 110 115 123 124 122 125 125 118 108 100 92 83 82 77 73 65 57 49 47 40 37 36 38 37
95 89 83 79 75 72 68 67 63 65 69 74 77 80 85 92 94 97 101 104 109 119 117 123 129 135 129 124 109 95 89 86 82 71 62 56 51 48 45 41 40 40 40
96 103 104 93 89 83 76 72 71 70 71 77 82 84 85 88 90 91 94 99 106 114 121 121 126 120 126 122 113 105 97 88 80 72 66 59 57 52 50 47 45 43 44
104 104 107 112 109 101 91 84 79 79 80 82 82 85 88 92 92 85 91 95 100 105 112 114 121 120 119 116 106 102 99 90 84 79 75 65 57 52 54 52 46 43 46
114 113 113 112 115 120 112 100 92 87 89 89 87 88 87 90 92 87 85 93 98 106 100 103 104 108 117 119 110 103 98 100 91 77 74 60 48 49 42 44 39 41 40
Wind_Direction_500mb
230 228 226 226 224 220 221 220 222 224 226 228 232 239 247 255 262 269 277 275 275 272 267 271 277 290 359 139 154 268 282 290 300 297 295 297 299 295 295 292 282 269 265
233 231 229 227 226 225 224 224 224 224 225 226 228 231 238 246 255 261 267 267 261 256 248 230 190 175 172 190 206 257 275 297 289 291 302 293 291 289 289 287 281 279 272
235 235 233 232 230 228 225 224 224 225 227 227 229 232 239 247 255 262 265 264 256 250 241 209 181 188 218 219 187 216 278 297 298 321 316 295 282 297 294 284 276 268 261
235 235 235 234 233 232 229 228 227 226 226 227 230 234 241 247 253 257 257 253 249 238 231 243 216 200 219 223 172 228 279 244 266 255 241 253 254 249 246 256 273 277 273
235 236 236 236 235 234 232 230 229 228 227 227 229 232 235 241 248 252 252 247 239 235 229 224 228 234 237 226 221 248 253 264 271 265 269 269 270 272 270 264 262 261 262
238 237 238 237 236 234 231 230 230 227 227 227 227 230 235 243 245 249 251 250 243 238 233 229 227 224 231 239 239 247 258 266 264 268 272 272 273 275 276 276 277 281 283
242 238 238 238 238 238 237 235 232 229 226 226 224 227 230 236 237 239 242 242 242 238 236 234 233 233 235 238 242 243 253 266 277 277 278 278 278 278 279 282 282 282 281
243 240 238 238 241 240 238 236 233 230 225 228 224 228 229 238 236 235 238 238 235 233 235 235 237 234 238 236 233 239 254 264 264 265 263 261 263 266 269 273 275 276 278
247 246 243 241 242 241 241 240 236 234 232 230 221 220 212 228 228 233 235 236 234 233 235 232 237 238 238 235 244 251 252 256 257 259 262 267 268 268 271 272 273 274 277
253 251 249 244 244 243 241 241 239 238 234 235 224 224 223 208 199 220 233 231 232 232 231 233 235 235 235 234 241 245 247 245 246 255 263 267 270 272 272 273 274 276 278
267 261 258 251 245 244 243 243 241 237 236 237 236 233 228 226 221 219 220 228 231 232 233 236 238 237 239 238 244 243 243 241 247 257 263 265 267 268 269 272 274 277 279
278 270 264 257 251 248 246 245 244 241 239 238 238 236 237 234 232 226 224 234 238 236 234 237 240 238 240 240 241 240 239 236 244 250 252 255 257 261 267 270 272 273 274
287 286 276 272 264 256 251 248 246 245 242 239 239 240 239 237 240 245 238 235 226 231 230 235 236 239 240 241 243 240 234 237 246 251 253 256 264 273 277 279 280 281 281
285 289 284 277 275 269 262 255 250 248 246 244 243 241 243 242 238 240 239 233 223 227 233 236 236 236 236 239 241 236 234 233 242 246 247 250 260 268 273 276 280 286 289
291 281 279 283 278 274 268 261 256 252 249 248 246 245 245 245 243 240 238 241 241 233 232 231 231 234 234 235 238 232 231 232 237 241 245 252 261 270 279 284 285 280 278
313 299 291 285 282 277 270 266 260 256 252 251 250 248 247 245 246 243 239 239 240 241 247 243 240 239 235 234 234 229 230 232 236 239 246 253 262 271 275 276 274 271 267
337 329 308 295 288 283 275 271 266 262 258 254 253 251 250 249 247 246 243 241 239 237 237 235 240 241 234 231 231 229 228 231 234 238 243 251 260 267 271 274 274 274 273
324 324 328 324 304 293 283 274 270 268 262 258 255 253 252 250 248 247 246 243 241 239 236 237 239 236 235 232 231 229 227 231 236 238 243 250 258 266 271 272 273 271 269
330 323 316 315 320 313 297 285 274 271 268 263 259 257 256 253 251 248 247 246 242 240 238 239 240 239 236 233 227 225 226 232 236 237 240 243 250 256 260 264 267 262 262
327 324 323 318 307 301 304 298 287 279 272 267 262 258 256 254 254 252 249 249 247 242 237 238 240 240 237 235 232 228 225 229 234 237 238 242 247 252 258 263 264 268 267
321 319 317 316 316 313 303 295 291 287 279 272 266 262 259 256 256 255 253 251 246 242 237 234 237 236 234 230 231 231 232 231 233 236 238 240 246 253 253 256 258 263 266
314 314 314 313 310 309 313 309 298 289 278 274 270 266 264 260 260 257 255 251 250 247 242 237 237 239 239 237 235 235 232 226 226 229 234 239 243 249 252 257 254 254 257
307 307 307 308 308 308 311 309 309 299 287 277 271 268 265 262 259 256 255 253 250 250 248 248 242 242 240 239 237 233 232 233 234 232 227 231 236 241 248 251 247 246 247
296 299 301 301 301 301 302 304 307 302 291 285 277 271 266 264 261 258 257 251 250 248 246 243 247 247 247 246 242 242 240 234 229 228 224 220 230 237 247 251 250 250 249
290 289 291 294 296 295 296 298 300 300 295 289 283 276 267 265 261 254 252 253 250 249 250 247 244 244 244 245 242 236 229 224 222 225 228 228 228 240 248 253 251 255 256
288 286 285 284 286 289 290 291 293 294 293 292 287 282 279 268 264 251 240 246 247 247 241 242 231 232 237 238 237 236 235 226 220 221 227 225 226 237 246 250 252 254 233
Wind_Speed_850mb
61 56 57 53 50 46 46 39 36 32 28 24 21 18 17 15 16 16 17 17 17 17 15 13 12 12 3 12 11 18 28 23 20 21 20 20 19 18 17 17 21 27 29
65 63 62 59 55 53 49 45 40 37 34 30 27 23 20 17 16 16 16 15 16 17 17 12 7 4 16 21 16 9 24 16 22 20 13 13 13 14 14 12 12 11 12
72 68 67 65 61 59 56 53 49 45 39 34 30 25 22 19 18 17 16 16 15 17 19 17 15 18 21 14 13 20 29 21 16 10 7 6 9 8 8 9 10 11 13
77 75 73 71 67 64 61 59 55 50 45 40 36 31 26 23 21 20 19 19 18 17 19 19 23 37 35 10 18 23 14 12 11 10 11 12 11 10 12 12 10 10 11
79 81 78 75 73 70 68 65 61 56 51 46 41 37 33 29 25 23 23 23 24 24 25 24 23 24 26 24 25 22 21 21 17 20 18 17 17 16 14 14 15 16 15
80 82 82 80 78 75 74 71 66 61 56 51 46 41 37 34 30 30 29 29 28 27 28 29 31 32 33 27 24 23 27 27 25 23 21 19 19 18 19 18 18 18 18
81 82 86 85 84 80 77 74 71 67 61 56 49 42 39 40 37 38 36 36 34 33 32 32 33 32 32 29 25 26 30 32 26 23 21 20 18 17 18 19 20 20 21
84 85 87 90 90 84 81 80 78 76 69 67 57 41 26 39 44 43 44 43 41 39 38 37 37 32 31 29 34 44 40 32 28 24 20 18 17 17 17 19 21 21 23
82 86 89 92 93 91 91 88 87 86 81 76 67 36 16 21 34 46 50 46 43 40 40 39 37 36 35 38 42 38 34 32 27 24 21 20 20 21 23 24 24 24 25
69 78 84 88 96 97 97 96 93 91 86 85 76 77 58 26 17 16 38 44 46 46 48 47 44 41 39 42 43 37 33 29 24 23 23 23 24 24 25 25 26 25 25
49 54 70 84 96 102 101 100 99 100 98 93 88 85 80 58 40 31 27 42 50 54 55 52 50 47 42 43 43 39 37 34 29 26 25 26 25 25 25 25 24 25 25
45 45 53 67 84 99 104 104 103 103 102 100 99 95 89 87 79 59 40 36 46 53 64 63 60 56 49 47 47 41 40 38 32 29 27 26 24 24 25 25 26 27 27
39 40 43 52 61 80 97 103 106 108 106 106 106 103 99 96 89 76 62 46 39 47 52 65 66 63 58 52 52 43 42 41 33 31 29 26 23 24 27 28 29 29 29
34 40 43 43 50 55 70 91 104 107 108 108 107 108 108 102 97 93 84 75 52 52 56 58 66 69 66 60 54 48 45 43 36 33 29 26 25 26 28 29 29 28 27
34 40 44 48 48 49 56 65 87 104 108 109 108 109 111 109 104 98 92 88 79 57 68 64 65 69 69 65 59 55 51 47 41 37 33 30 28 28 29 28 27 27 27
34 38 43 46 49 49 53 60 69 83 98 108 110 111 114 113 110 107 102 96 88 76 66 73 73 69 66 68 64 62 58 52 46 41 37 33 30 30 31 31 31 31 30
47 40 37 43 47 52 51 58 69 72 80 92 106 111 114 112 115 115 110 104 97 88 77 63 69 67 70 70 70 68 65 58 52 46 40 37 35 35 34 33 35 33 31
44 46 47 42 44 50 52 56 65 71 77 84 88 103 113 111 115 116 116 114 109 98 90 83 77 74 73 72 70 69 70 62 57 50 45 39 36 36 36 35 35 31 30
48 48 48 49 46 46 51 54 60 66 75 79 83 89 99 108 117 119 120 117 113 108 96 96 88 83 76 74 76 76 75 68 62 56 49 43 42 40 38 37 34 33 30
57 56 54 53 54 53 49 52 58 62 70 79 82 87 90 97 110 118 122 121 117 114 107 103 101 93 86 83 80 81 81 75 69 62 55 49 46 42 40 35 34 34 31
65 64 63 60 60 59 59 59 55 58 65 75 81 87 93 96 99 106 115 123 123 121 118 113 113 104 95 93 95 90 84 73 72 68 59 55 48 43 38 34 35 35 34
76 72 68 66 66 65 60 62 64 65 63 71 79 82 88 91 101 98 107 110 115 123 124 122 125 125 118 108 100 92 83 82 77 73 65 57 49 47 40 37 36 38 37
95 89 83 79 75 72 68 67 63 65 69 74 77 80 85 92 94 97 101 104 109 119 117 123 129 135 129 124 109 95 89 86 82 71 62 56 51 48 45 41 40 40 40
96 103 104 93 89 83 76 72 71 70 71 77 82 84 85 88 90 91 94 99 106 114 121 121 126 120 126 122 113 105 97 88 80 72 66 59 57 52 50 47 45 43 44
104 104 107 112 109 101 91 84 79 79 80 82 82 85 88 92 92 85 91 95 100 105 112 114 121 120 119 116 106 102 99 90 84 79 75 65 57 52 54 52 46 43 46
114 113 113 112 115 120 112 100 92 87 89 89 87 88 87 90 92 87 85 93 98 106 100 103 104 108 117 119 110 103 98 100 91 77 74 60 48 49 42 44 39 41 40
Wind_Direction_850mb
230 228 226 226 224 220 221 220 222 224 226 228 232 239 247 255 262 269 277 275 275 272 267 271 277 290 359 139 154 268 282 290 300 297 295 297 299 295 295 292 282 269 265
233 231 229 227 226 225 224 224 224 224 225 226 228 231 238 246 255 261 267 267 261 256 248 230 190 175 172 190 206 257 275 297 289 291 302 293 291 289 289 287 281 279 272
235 235 233 232 230 228 225 224 224 225 227 227 229 232 239 247 255 262 265 264 256 250 241 209 181 188 218 219 187 216 278 297 298 321 316 295 282 297 294 284 276 268 261
235 235 235 234 233 232 229 228 227 226 226 227 230 234 241 247 253 257 257 253 249 238 231 243 216 200 219 223 172 228 279 244 266 255 241 253 254 249 246 256 273 277 273
235 236 236 236 235 234 232 230 229 228 227 227 229 232 235 241 248 252 252 247 239 235 229 224 228 234 237 226 221 248 253 264 271 265 269 269 270 272 270 264 262 261 262
238 237 238 237 236 234 231 230 230 227 227 227 227 230 235 243 245 249 251 250 243 238 233 229 227 224 231 239 239 247 258 266 264 268 272 272 273 275 276 276 277 281 283
242 238 238 238 238 238 237 235 232 229 226 226 224 227 230 236 237 239 242 242 242 238 236 234 233 233 235 238 242 243 253 266 277 277 278 278 278 278 279 282 282 282 281
243 240 238 238 241 240 238 236 233 230 225 228 224 228 229 238 236 235 238 238 235 233 235 235 237 234 238 236 233 239 254 264 264 265 263 261 263 266 269 273 275 276 278
247 246 243 241 242 241 241 240 236 234 232 230 221 220 212 228 228 233 235 236 234 233 235 232 237 238 238 235 244 251 252 256 257 259 262 267 268 268 271 272 273 274 277
253 251 249 244 244 243 241 241 239 238 234 235 224 224 223 208 199 220 233 231 232 232 231 233 235 235 235 234 241 245 247 245 246 255 263 267 270 272 272 273 274 276 278
267 261 258 251 245 244 243 243 241 237 236 237 236 233 228 226 221 219 220 228 231 232 233 236 238 237 239 238 244 243 243 241 247 257 263 265 267 268 269 272 274 277 279
278 270 264 257 251 248 246 245 244 241 239 238 238 236 237 234 232 226 224 234 238 236 234 237 240 238 240 240 241 240 239 236 244 250 252 255 257 261 267 270 272 273 274
287 286 276 272 264 256 251 248 246 245 242 239 239 240 239 237 240 245 238 235 226 231 230 235 236 239 240 241 243 240 234 237 246 251 253 256 264 273 277 279 280 281 281
285 289 284 277 275 269 262 255 250 248 246 244 243 241 243 242 238 240 239 233 223 227 233 236 236 236 236 239 241 236 234 233 242 246 247 250 260 268 273 276 280 286 289
291 281 279 283 278 274 268 261 256 252 249 248 246 245 245 245 243 240 238 241 241 233 232 231 231 234 234 235 238 232 231 232 237 241 245 252 261 270 279 284 285 280 278
313 299 291 285 282 277 270 266 260 256 252 251 250 248 247 245 246 243 239 239 240 241 247 243 240 239 235 234 234 229 230 232 236 239 246 253 262 271 275 276 274 271 267
337 329 308 295 288 283 275 271 266 262 258 254 253 251 250 249 247 246 243 241 239 237 237 235 240 241 234 231 231 229 228 231 234 238 243 251 260 267 271 274 274 274 273
324 324 328 324 304 293 283 274 270 268 262 258 255 253 252 250 248 247 246 243 241 239 236 237 239 236 235 232 231 229 227 231 236 238 243 250 258 266 271 272 273 271 269
330 323 316 315 320 313 297 285 274 271 268 263 259 257 256 253 251 248 247 246 242 240 238 239 240 239 236 233 227 225 226 232 236 237 240 243 250 256 260 264 267 262 262
327 324 323 318 307 301 304 298 287 279 272 267 262 258 256 254 254 252 249 249 247 242 237 238 240 240 237 235 232 228 225 229 234 237 238 242 247 252 258 263 264 268 267
321 319 317 316 316 313 303 295 291 287 279 272 266 262 259 256 256 255 253 251 246 242 237 234 237 236 234 230 231 231 232 231 233 236 238 240 246 253 253 256 258 263 266
314 314 314 313 310 309 313 309 298 289 278 274 270 266 264 260 260 257 255 251 250 247 242 237 237 239 239 237 235 235 232 226 226 229 234 239 243 249 252 257 254 254 257
307 307 307 308 308 308 311 309 309 299 287 277 271 268 265 262 259 256 255 253 250 250 248 248 242 242 240 239 237 233 232 233 234 232 227 231 236 241 248 251 247 246 247
296 299 301 301 301 301 302 304 307 302 291 285 277 271 266 264 261 258 257 251 250 248 246 243 247 247 247 246 242 242 240 234 229 228 224 220 230 237 247 251 250 250 249
290 289 291 294 296 295 296 298 300 300 295 289 283 276 267 265 261 254 252 253 250 249 250 247 244 244 244 245 242 236 229 224 222 225 228 228 228 240 248 253 251 255 256
288 286 285 284 286 289 290 291 293 294 293 292 287 282 279 268 264 251 240 246 247 247 241 242 231 232 237 238 237 236 235 226 220 221 227 225 226 237 246 250 252 254 233